This is the latest recevied weather packets stored in our database for station/object K2ATL. If no packets are shown the sender has not sent any weather packets the latest 10 day(s).
| Time | Temp. | Humidity | Pressure | Rain* | Wind** | Luminosity | Snow |
|---|---|---|---|---|---|---|---|
| 1787925536 | 22.22° C | 92% | 1104.2 hPa | 0 mm | - | 140 W/m² | - |
| 1787925231 | 22.22° C | 92% | 1104.2 hPa | 0 mm | - | 102 W/m² | - |
| 1787924930 | 22.22° C | 93% | 1104.2 hPa | 0 mm | - | 92 W/m² | - |
| 1787924630 | 22.22° C | 93% | 1103.9 hPa | 0 mm | - | 73 W/m² | - |
| 1787924325 | 22.22° C | 94% | 1104.2 hPa | 0 mm | - | 80 W/m² | - |
| 1787924020 | 22.22° C | 94% | 1104 hPa | 0 mm | - | 64 W/m² | - |
| 1787923714 | 22.22° C | 94% | 1104 hPa | 0 mm | - | 58 W/m² | - |
| 1787923410 | 22.22° C | 93% | 1103.9 hPa | 0 mm | - | 61 W/m² | - |
| 1787923105 | 22.22° C | 93% | 1104.1 hPa | 0 mm | - | 56 W/m² | - |
| 1787922800 | 22.22° C | 94% | 1104 hPa | 0 mm | - | 56 W/m² | - |
| 1787922499 | 22.22° C | 95% | 1104.1 hPa | 0 mm | - | 59 W/m² | - |
| 1787922199 | 21.67° C | 95% | 1103.9 hPa | 0 mm | - | 52 W/m² | - |
| 1787921896 | 21.67° C | 95% | 1103.9 hPa | 0 mm | - | 51 W/m² | - |
| 1787921591 | 21.67° C | 95% | 1104 hPa | 0 mm | - | 50 W/m² | - |
| 1787921290 | 21.67° C | 95% | 1103.9 hPa | 0 mm | - | 36 W/m² | - |
| 1787920986 | 21.67° C | 95% | 1103.9 hPa | 0 mm | - | 36 W/m² | - |
| 1787920682 | 21.67° C | 95% | 1103.7 hPa | 0 mm | - | 35 W/m² | - |
| 1787920381 | 21.67° C | 95% | 1103.8 hPa | 0 mm | - | 39 W/m² | - |
| 1787920078 | 21.67° C | 95% | 1103.8 hPa | 0 mm | - | 39 W/m² | - |
| 1787919773 | 21.67° C | 96% | 1103.8 hPa | 0 mm | - | 35 W/m² | - |
| 1787919472 | 21.67° C | 96% | 1103.8 hPa | 0 mm | - | 32 W/m² | - |
| 1787919168 | 21.11° C | 96% | 1103.6 hPa | 0 mm | - | 28 W/m² | - |
| 1787918868 | 21.11° C | 97% | 1103.7 hPa | 0 mm | - | 26 W/m² | - |
| 1787918563 | 21.11° C | 97% | 1103.7 hPa | 0 mm | - | 25 W/m² | - |
| 1787918262 | 21.11° C | 97% | 1103.6 hPa | 0 mm | - | 25 W/m² | - |
* Rain latest hour (hover to see other rain measurements)
** Current wind speed in m/s (hover to see current wind gust speed)